Weather History for KTRI - August, 2012

Change the Weather History Date:

Monday, August 13, 2012

  Actual Average Record
Temperature  
Mean Temperature 70 °F 74 °F  
Max Temperature 83 °F 85 °F 96 °F (2010)
Min Temperature 57 °F 63 °F 51 °F (1964)
Degree Days  
Heating Degree Days 0 0  
Month to date heating degree days 0 0  
Since 1 June heating degree days 5 11  
Since 1 July heating degree days 0 0  
Cooling Degree Days 5 9  
Month to date cooling degree days 127 119  
Year to date cooling degree days 929 697  
Since 1 June cooling degree days 767 624  
Growing Degree Days 20 (Base 50)    
Moisture  
Dew Point 60 °F    
Average Humidity 76    
Maximum Humidity 100    
Minimum Humidity 51    
Precipitation  
Precipitation T in 0.11 in 1.57 in (2013)
Month to date precipitation 1.54 1.63  
Year to date precipitation 32.23 27.61  
Snow  
Snow 0.00 in 0.00 in - ()
Month to date snowfall 0.0 0.0  
Since 1 June snowfall 0.0 0.0  
Since 1 July snowfall 0.0 0.0  
Snow Depth 0.00 in    
Sea Level Pressure  
Sea Level Pressure 29.99 in    
Wind  
Wind Speed 3 mph (West)    
Max Wind Speed 13 mph    
Max Gust Speed 16 mph    
Visibility 9 miles    
Events      
T = Trace of Precipitation, MM = Missing Value Source: NWS Daily Summary

Daily Weather History Graph

Daily Weather History Graph

Search for Another Location

Airport or City:

Trip Planner

Search our weather history database for the weather conditions in past years. The results will help you decide how hot, cold, wet, or windy it might be!

Date:

Astronomy

Aug. 13, 2012 Rise Set
Actual Time 6:46 AM EDT 8:22 PM EDT
Civil Twilight 6:18 AM EDT 8:49 PM EDT
Nautical Twilight 5:45 AM EDT 9:22 PM EDT
Astronomical Twilight 5:10 AM EDT 9:57 PM EDT
Moon 2:51 AM EDT (8/13) 5:29 PM EDT (8/13)
Length of Visible Light 14h 31m
Length of Day
13h 36m
Waning Crescent, 16% of the Moon is Illuminated
Aug 13
Waning Crescent
Aug 17
New
Aug 24
First Quarter
Aug 31
Full
Sep 8
Last Quarter

Hourly Weather History & Observations

Time (EDT) Temp. Heat Index Dew Point Humidity Pressure Visibility Wind Dir Wind Speed Gust Speed Precip Events Conditions
12:53 AM 60.1 °F - 57.9 °F 93% 30.02 in 10.0 mi Calm Calm - N/A   Scattered Clouds
1:53 AM 61.0 °F - 57.9 °F 90% 30.01 in 9.0 mi Calm Calm - N/A   Mostly Cloudy
2:53 AM 60.1 °F - 57.9 °F 93% 30.00 in 7.0 mi Calm Calm - N/A   Mostly Cloudy
3:53 AM 59.0 °F - 57.0 °F 93% 30.00 in 6.0 mi Calm Calm - N/A   Mostly Cloudy
4:53 AM 57.9 °F - 57.0 °F 97% 30.01 in 6.0 mi Calm Calm - N/A   Mostly Cloudy
5:53 AM 57.0 °F - 55.9 °F 96% 30.01 in 5.0 mi Calm Calm - N/A   Mostly Cloudy
6:53 AM 57.0 °F - 55.9 °F 96% 30.02 in 5.0 mi Calm Calm - N/A   Partly Cloudy
7:53 AM 61.0 °F - 59.0 °F 93% 30.04 in 10.0 mi Calm Calm - N/A   Scattered Clouds
8:53 AM 64.0 °F - 60.1 °F 87% 30.04 in 10.0 mi Calm Calm - N/A   Mostly Cloudy
9:53 AM 66.9 °F - 60.1 °F 79% 30.04 in 10.0 mi Calm Calm - N/A   Mostly Cloudy
10:53 AM 73.0 °F - 62.1 °F 68% 30.03 in 10.0 mi Calm Calm - N/A   Mostly Cloudy
11:53 AM 77.0 °F - 63.0 °F 62% 30.01 in 10.0 mi Calm Calm - N/A   Scattered Clouds
12:53 PM 80.1 °F 81.2 °F 62.1 °F 54% 29.99 in 10.0 mi Variable 3.5 mph - N/A   Mostly Cloudy
1:53 PM 81.0 °F 81.9 °F 62.1 °F 52% 29.98 in 10.0 mi NW 8.1 mph - N/A   Mostly Cloudy
2:53 PM 82.9 °F 84.0 °F 63.0 °F 51% 29.96 in 10.0 mi West 9.2 mph - N/A   Mostly Cloudy
3:53 PM 81.0 °F 82.2 °F 63.0 °F 54% 29.96 in 10.0 mi NNW 5.8 mph - N/A   Mostly Cloudy
4:53 PM 80.1 °F 81.1 °F 61.0 °F 52% 29.96 in 10.0 mi West 9.2 mph - N/A   Overcast
5:53 PM 79.0 °F - 60.1 °F 52% 29.96 in 10.0 mi West 9.2 mph - N/A   Overcast
6:53 PM 77.0 °F - 60.1 °F 56% 29.96 in 10.0 mi SW 6.9 mph - N/A   Overcast
7:53 PM 73.9 °F - 60.1 °F 62% 29.94 in 10.0 mi South 4.6 mph - N/A   Overcast
8:53 PM 73.9 °F - 61.0 °F 64% 29.94 in 10.0 mi Calm Calm - N/A   Overcast
9:53 PM 70.0 °F - 63.0 °F 78% 29.93 in 10.0 mi NNW 4.6 mph - N/A   Overcast
10:53 PM 69.1 °F - 62.1 °F 78% 29.93 in 10.0 mi Calm Calm - N/A   Overcast
11:53 PM 68.0 °F - 64.0 °F 87% 29.94 in 10.0 mi Calm Calm - N/A   Overcast